STARLINK-32777, 62525

Orbit data source: Space-Track

STARLINK-32777, 62525 is a payload satellite owned by SpaceX/Seattle (US) in LEO that was launched on Wed, 08 Jan 2025 UTC via an FALCON 9 launch vehicle from the Air Force Eastern Test Range (AFETR). Payload-class satellites include a variety of spacecraft equipped with specific instruments for various scientific and technological missions. These include communications satellites like Starlink; space stations such as the ISS; scientific satellites like the Hubble; Earth observation satellites from companies like Planet Labs, Umbra, and HawkEye 360; GPS; miniature CubeSats for education and research; and military/defense satellites.

Loading next visibility...
Identifier
62525, 2025-004Q
Orbit
LEO
Country
Flag of USUS
Related business
Manufacturer
SpaceX/Seattle
Mission
Operational Commercial Communications
Bus & Motor
STARLINK V2M, Unknown motor
Mass
730 kg wet, ~700 kg dry
Launch date (UTC)
2025-01-08 (1 year ago)
Launch vehicle
FALCON 9
Launch site
Air Force Eastern Test Range (AFETR)
Object type
Payload
Rocket body
Debris
Shape & HBR
Box + 2 Pan, 17.7 m
Radar Cross Section
33.884 m², Large (>1 m²)

Expand to show TLE details & history
Last TLE update: 19 hours ago

TLE from 19 hours ago
0 STARLINK-32777
1 62525U 25004Q   26035.46723088  .00021712  00000-0  79638-3 0  9994
2 62525  43.0005  47.8441 0000736 274.5531  85.5237 15.27572114 61377
Epoch: 2026-02-04T11:12Z
TLE epoch observation values (Epoch: 2026-02-04T11:12:48.748Z)
Latitude
0.00003°
Longitude
105.00762°
Altitude
482.809 km
Speed
7.626 km/s
True Right ascension
03h 11m 22s
True Declination
0° 00' 00"
Sunlit
Object was in daylight at epoch
Visualization orbit readout
Latitude
Unknown
Longitude
Unknown
Altitude
Unknown
Speed
Unknown
Apparent Right ascension
Unknown
Apparent Declination
Unknown
Sunlit
N/A
Visualization observer readout
Local Sidereal Time
07:52:59
Azimuth
Unknown
Elevation
Unknown
Doppler factor
Unknown
Orbital elements
Apogee altitude
485.523 km
Perigee altitude
484.513 km
Semi-major axis
6,863.155 km
Eccentricity
0.00007
Inclination
43.0005°
RAAN
47.8441°
Arg. of periapsis
274.5531°
True anomaly
85.53211°
Mean anomaly
85.5237°
Eccentric anomaly
85.5279°
Mean motion
3.81731 °/min
Orbital period
94.31 mins
BSTAR
0.00079638
Loading maneuver chart data...
Computing Atmospheric mass density...
Loading historical data...
Loading historical data...
Loading historical data...
Loading historical data...
Loading historical data...
Loading historical data...
Loading historical data...

Documentation

Showing up to 5 results
|